{"data":{"norad_id":65919,"intl_designator":"2025-225K","name":"STARLINK-35519","alt_names":[],"object_type":"PAYLOAD","status":"ACTIVE","operator":null,"country":"US","launch_date":"2025-10-08","launch_site_code":"AFWTR","launch_vehicle":null,"mission":null,"orbit_class":"UNKNOWN","rcs_meters":null,"size_class":null,"mass_kg":null,"dimensions":null,"purposes":["comms"],"wikipedia_slug":null,"has_3d_model":false,"image_url":null,"decayed_at":null,"tle_current":{"epoch":"2026-05-25T01:03:59.224608Z","epoch_age_seconds":64567,"freshness":"FRESH","line1":"1 65919U 25225K   26145.04443547  .00012487  00000+0  43301-3 0  9990","line2":"2 65919  53.1581 170.6424 0001197  81.5278 278.5858 15.30200897 36106","mean_motion":15.30200897,"eccentricity":0.0001197,"inclination_deg":53.1581,"raan_deg":170.6424,"arg_perigee_deg":81.5278,"mean_anomaly_deg":278.5858,"bstar":0.00043301,"rev_number":3610,"period_min":94.105290542122,"perigee_km":474.3920452182,"apogee_km":476.03273706244,"semimajor_km":6853.3493911403,"source":"CELESTRAK","updated_at":"2026-05-25T13:38:20.987682Z"}}}